�������ċp�F�����K�X���j�^�v���󋵏��
Date,Time,�ċp�F�����K�X���j�^(cps),����,����(m/s)
2022/02/09,00:00,1.5,��,6.8
2022/02/09,00:10,1.5,��,6.5
2022/02/09,00:20,1.6,��,6.0
2022/02/09,00:30,1.6,��,5.3
2022/02/09,00:40,1.6,��,5.7
2022/02/09,00:50,1.6,���k��,5.8
2022/02/09,01:00,1.4,���k��,5.4
2022/02/09,01:10,1.6,�k��,7.8
2022/02/09,01:20,1.5,�k��,6.4
2022/02/09,01:30,1.5,���k��,5.2
2022/02/09,01:40,1.4,���k��,3.8
2022/02/09,01:50,1.4,��,2.6
2022/02/09,02:00,1.4,��,2.6
2022/02/09,02:10,1.4,��,2.8
2022/02/09,02:20,1.5,���k��,3.8
2022/02/09,02:30,1.5,��,3.0
2022/02/09,02:40,1.4,��,2.6
2022/02/09,02:50,1.5,���k��,3.1
2022/02/09,03:00,1.5,���k��,6.2
2022/02/09,03:10,1.4,���k��,7.0
2022/02/09,03:20,1.5,���k��,6.0
2022/02/09,03:30,1.5,�k��,4.7
2022/02/09,03:40,1.6,�k��,6.0
2022/02/09,03:50,1.4,���k��,6.9
2022/02/09,04:00,1.5,���k��,6.6
2022/02/09,04:10,1.6,���k��,6.0
2022/02/09,04:20,1.5,���k��,5.5
2022/02/09,04:30,1.6,���k��,4.9
2022/02/09,04:40,1.5,�k��,3.2
2022/02/09,04:50,1.5,���k��,2.3
2022/02/09,05:00,1.5,���k��,2.9
2022/02/09,05:10,1.5,�k��,2.6
2022/02/09,05:20,1.6,�k��,3.0
2022/02/09,05:30,1.5,���k��,2.6
2022/02/09,05:40,1.6,���k��,2.3
2022/02/09,05:50,1.6,���k��,3.0
2022/02/09,06:00,1.6,���k��,3.4
2022/02/09,06:10,1.6,���k��,4.0
2022/02/09,06:20,1.4,���k��,3.9
2022/02/09,06:30,1.5,��,2.3
2022/02/09,06:40,1.4,�쐼,2.6
2022/02/09,06:50,1.5,�쐼,3.3
2022/02/09,07:00,1.5,���쐼,3.8
2022/02/09,07:10,1.5,���쐼,4.2
2022/02/09,07:20,1.5,��,4.3
2022/02/09,07:30,1.5,��,5.1
2022/02/09,07:40,1.4,��,5.9
2022/02/09,07:50,1.5,��,5.4
2022/02/09,08:00,1.6,��,5.4
2022/02/09,08:10,1.4,��,5.5
2022/02/09,08:20,1.4,��,3.6
2022/02/09,08:30,1.6,���k��,3.7
2022/02/09,08:40,1.6,���k��,3.2
2022/02/09,08:50,1.4,��,4.4
2022/02/09,09:00,1.6,���쐼,4.2
2022/02/09,09:10,1.5,��,4.5
2022/02/09,09:20,1.5,��,4.0
2022/02/09,09:30,1.5,���k��,4.2
2022/02/09,09:40,1.6,���k��,3.7
2022/02/09,09:50,1.5,�k��,2.9
2022/02/09,10:00,1.5,���k��,5.9
2022/02/09,10:10,1.4,�k��,5.9
2022/02/09,10:20,1.6,�k��,5.4
2022/02/09,10:30,1.5,���k��,4.7
2022/02/09,10:40,1.6,�k��,7.3
2022/02/09,10:50,1.6,�k�k��,7.1
2022/02/09,11:00,1.6,�k��,7.3
2022/02/09,11:10,1.5,�k��,6.4
2022/02/09,11:20,1.4,�k��,7.8
2022/02/09,11:30,1.4,�k�k��,7.6
2022/02/09,11:40,1.4,�k�k��,7.8
2022/02/09,11:50,1.4,�k�k��,5.0
2022/02/09,12:00,1.5,�k�k��,5.1
2022/02/09,12:10,1.5,�k�k��,6.3
2022/02/09,12:20,1.5,�k�k��,6.3
2022/02/09,12:30,1.5,�k�k��,6.8
2022/02/09,12:40,1.6,�k�k��,5.6
2022/02/09,12:50,1.4,�k�k��,5.3
2022/02/09,13:00,1.4,�k�k��,6.4
2022/02/09,13:10,1.5,�k,5.8
2022/02/09,13:20,1.5,�k�k��,8.1
2022/02/09,13:30,1.5,�k�k��,6.7
2022/02/09,13:40,1.4,�k�k��,6.8
2022/02/09,13:50,1.5,�k�k��,7.6
2022/02/09,14:00,1.5,�k�k��,7.5
2022/02/09,14:10,1.5,�k�k��,7.6
2022/02/09,14:20,1.5,�k�k��,6.4
2022/02/09,14:30,1.6,�k��,7.0
2022/02/09,14:40,1.5,�k�k��,7.0
2022/02/09,14:50,1.5,�k�k��,7.1
2022/02/09,15:00,1.5,�k�k��,6.2
2022/02/09,15:10,1.5,�k�k��,6.9
2022/02/09,15:20,1.5,�k��,5.3
2022/02/09,15:30,1.5,�k��,4.5
2022/02/09,15:40,1.4,�k��,3.0
2022/02/09,15:50,1.6,���k��,3.6
2022/02/09,16:00,1.5,�k��,3.4
2022/02/09,16:10,1.5,���k��,2.5
2022/02/09,16:20,1.5,���k��,2.6
2022/02/09,16:30,1.6,�k��,2.0
2022/02/09,16:40,1.6,�k��,1.4
2022/02/09,16:50,1.5,���k��,1.1
2022/02/09,17:00,1.5,�k��,1.2
2022/02/09,17:10,1.5,���k��,1.2
2022/02/09,17:20,1.5,�k��,1.5
2022/02/09,17:30,1.5,�k��,2.8
2022/02/09,17:40,1.5,�k��,2.5
2022/02/09,17:50,1.5,�k�k��,2.8
2022/02/09,18:00,1.5,�k,2.5
2022/02/09,18:10,1.4,��쐼,0.9
2022/02/09,18:20,1.5,�쐼,0.9
2022/02/09,18:30,1.5,�쐼,2.2
2022/02/09,18:40,1.6,�k��,3.0
2022/02/09,18:50,1.5,�k�k��,4.6
2022/02/09,19:00,1.5,�k��,5.3
2022/02/09,19:10,1.5,�k��,4.4
2022/02/09,19:20,1.5,�k�k��,4.4
2022/02/09,19:30,1.5,�k�k��,4.6
2022/02/09,19:40,1.5,�k��,4.6
2022/02/09,19:50,1.5,�k��,5.5
2022/02/09,20:00,1.6,�k��,5.2
2022/02/09,20:10,1.5,�k��,4.8
2022/02/09,20:20,1.5,�k��,4.8
2022/02/09,20:30,1.5,�k��,4.7
2022/02/09,20:40,1.5,�k�k��,4.0
2022/02/09,20:50,1.5,�k�k��,3.5
2022/02/09,21:00,1.5,�k,3.2
2022/02/09,21:10,1.6,�k,2.6
2022/02/09,21:20,1.5,�k,3.2
2022/02/09,21:30,1.5,�k�k��,2.9
2022/02/09,21:40,1.6,�k�k��,3.1
2022/02/09,21:50,1.5,�k�k��,3.1
2022/02/09,22:00,1.5,�k�k��,3.3
2022/02/09,22:10,1.5,�k�k��,4.1
2022/02/09,22:20,1.5,�k�k��,4.4
2022/02/09,22:30,1.4,�k�k��,4.4
2022/02/09,22:40,1.4,�k��,4.5
2022/02/09,22:50,1.5,�k��,4.5
2022/02/09,23:00,1.5,�k��,4.4
2022/02/09,23:10,1.4,�k��,4.3
2022/02/09,23:20,1.5,�k��,3.9
2022/02/09,23:30,1.5,�k�k��,4.1
2022/02/09,23:40,1.5,�k�k��,4.5
2022/02/09,23:50,1.6,�k�k��,4.2
